Marion Regional, IL

6:56 PM CST on November 21, 2019 (GMT -0600)
Williamson County Regional

Weather History for KMWA - October, 2019

Change the Weather History Date:

Sunday, October 20, 2019

  Actual Average Record
Temperature  
Mean Temperature 58 °F -  
Max Temperature 71 °F 63 °F 82 °F (1971)
Min Temperature 46 °F 41 °F 27 °F (1972)
Degree Days  
Heating Degree Days 8    
Growing Degree Days 8 (Base 50)    
Moisture  
Dew Point 51 °F    
Average Humidity 85    
Maximum Humidity 100    
Minimum Humidity 56    
Precipitation  
Precipitation 0.00 in - - ()
Sea Level Pressure  
Sea Level Pressure 29.86 in    
Wind  
Wind Speed 2 mph (SE)    
Max Wind Speed 8 mph    
Max Gust Speed -    
Visibility 9 miles    
Events Fog    
Averages and records for this station are not official NWS values.
T = Trace of Precipitation, MM = Missing Value Source: NWS Daily Summary

Daily Weather History Graph

Daily Weather History Graph

Search for Another Location

Airport or City:

Astronomy

Oct. 20, 2019 Rise Set
Actual Time 7:08 AM CDT 6:12 PM CDT
Civil Twilight 6:42 AM CDT 6:38 PM CDT
Nautical Twilight 6:11 AM CDT 7:09 PM CDT
Astronomical Twilight 5:41 AM CDT 7:39 PM CDT
Moon 11:25 PM CDT (10/20) 1:32 PM CDT (10/20)
Length of Visible Light 11h 56m
Length of Day
11h 03m
Waning Gibbous, 59% of the Moon is Illuminated
Oct 20
Waning Gibbous
Oct 21
Last Quarter
Oct 27
New
Nov 4
First Quarter
Nov 12
Full

Hourly Weather History & Observations

Time (CDT) Temp. Dew Point Humidity Pressure Visibility Wind Dir Wind Speed Gust Speed Precip Events Conditions
12:15 AM 50.7 °F 50.7 °F 100% 29.81 in 10.0 mi Calm Calm - N/A   Clear
12:35 AM 50.2 °F 49.8 °F 99% 29.82 in 10.0 mi SSW 3.5 mph - N/A   Clear
12:55 AM 50.0 °F 48.7 °F 95% 29.82 in 10.0 mi Calm Calm - N/A   Scattered Clouds
1:15 AM 49.5 °F 47.5 °F 93% 29.82 in 10.0 mi Calm Calm - N/A   Mostly Cloudy
1:35 AM 50.0 °F 49.6 °F 99% 29.82 in 10.0 mi Calm Calm - N/A   Mostly Cloudy
1:55 AM 49.8 °F 49.8 °F 100% 29.83 in 10.0 mi Calm Calm - N/A   Scattered Clouds
2:15 AM 49.3 °F 49.3 °F 100% 29.84 in 10.0 mi Calm Calm - N/A   Clear
2:35 AM 47.1 °F 46.9 °F 99% 29.83 in 3.0 mi Calm Calm - N/A   Clear
2:55 AM 48.9 °F 48.9 °F 100% 29.83 in 10.0 mi Calm Calm - N/A   Clear
3:15 AM 49.6 °F 49.6 °F 100% 29.84 in 10.0 mi West 3.5 mph - N/A   Clear
3:35 AM 50.5 °F 49.5 °F 96% 29.84 in 10.0 mi Calm Calm - N/A   Clear
3:55 AM 48.4 °F 48.0 °F 99% 29.84 in 10.0 mi Calm Calm - N/A   Clear
4:15 AM 49.3 °F 48.9 °F 99% 29.84 in 10.0 mi Calm Calm - N/A   Clear
4:35 AM 48.0 °F 48.0 °F 100% 29.85 in 7.0 mi Calm Calm - N/A   Scattered Clouds
4:55 AM 47.8 °F 47.8 °F 100% 29.86 in 10.0 mi Calm Calm - N/A   Scattered Clouds
5:15 AM 47.8 °F 47.8 °F 100% 29.87 in 7.0 mi Calm Calm - N/A   Mostly Cloudy
5:35 AM 47.7 °F 47.7 °F 100% 29.88 in 7.0 mi Calm Calm - N/A   Mostly Cloudy
5:55 AM 49.8 °F 49.8 °F 100% 29.88 in 7.0 mi Calm Calm - N/A   Overcast
6:15 AM 49.6 °F 49.6 °F 100% 29.89 in 7.0 mi Calm Calm - N/A   Overcast
6:35 AM 49.6 °F 49.6 °F 100% 29.89 in 5.0 mi Calm Calm - N/A   Mostly Cloudy
6:53 AM 50.0 °F 48.2 °F 94% 29.88 in 5.0 mi Calm Calm - N/A Fog Shallow Fog
7:26 AM 48.2 °F 48.2 °F 100% 29.88 in 1.0 mi Calm Calm - N/A   Partly Cloudy
7:47 AM 46.4 °F 46.4 °F 100% 29.89 in 0.2 mi Calm Calm - N/A Fog Fog
8:40 AM 53.6 °F 53.6 °F 100% 29.91 in 5.0 mi WNW 3.5 mph - N/A   Partly Cloudy
8:50 AM 53.6 °F 53.6 °F 100% 29.91 in 7.0 mi NNW 3.5 mph - N/A   Partly Cloudy
9:16 AM 55.4 °F 53.6 °F 94% 29.91 in 7.0 mi NNW 5.8 mph - N/A   Mostly Cloudy
9:49 AM 57.2 °F 53.6 °F 88% 29.93 in 7.0 mi NNW 8.1 mph - N/A   Overcast
10:47 AM 60.8 °F 53.6 °F 77% 29.94 in 7.0 mi NNW 4.6 mph - N/A   Overcast
11:09 AM 60.8 °F 53.6 °F 77% 29.94 in 10.0 mi WNW 3.5 mph - N/A   Mostly Cloudy
11:47 AM 62.6 °F 53.6 °F 72% 29.93 in 10.0 mi Calm Calm - N/A   Mostly Cloudy
12:47 PM 64.4 °F 53.6 °F 68% 29.91 in 10.0 mi South 4.6 mph - N/A   Scattered Clouds
1:47 PM 68.0 °F 53.6 °F 60% 29.88 in 10.0 mi ESE 4.6 mph - N/A   Clear
2:47 PM 69.8 °F 53.6 °F 56% 29.86 in 10.0 mi South 4.6 mph - N/A   Clear
3:47 PM 69.8 °F 53.6 °F 56% 29.86 in 10.0 mi South 4.6 mph - N/A   Mostly Cloudy
4:47 PM 69.8 °F 53.6 °F 56% 29.85 in 10.0 mi South 4.6 mph - N/A   Mostly Cloudy
5:47 PM 68.0 °F 55.4 °F 64% 29.85 in 10.0 mi South 4.6 mph - N/A   Mostly Cloudy
7:15 PM 61.5 °F 55.0 °F 79% 29.86 in 10.0 mi SE 4.6 mph - N/A   Mostly Cloudy
7:35 PM 62.8 °F 54.5 °F 74% 29.85 in 10.0 mi ESE 3.5 mph - N/A   Mostly Cloudy
7:55 PM 62.8 °F 53.8 °F 72% 29.86 in 10.0 mi SE 4.6 mph - N/A   Scattered Clouds
8:15 PM 63.0 °F 53.1 °F 70% 29.85 in 10.0 mi ESE 4.6 mph - N/A   Scattered Clouds
8:35 PM 63.3 °F 52.7 °F 68% 29.86 in 10.0 mi Calm Calm - N/A   Mostly Cloudy
8:55 PM 63.9 °F 52.9 °F 67% 29.86 in 10.0 mi SE 3.5 mph - N/A   Overcast
9:15 PM 62.6 °F 52.2 °F 69% 29.86 in 10.0 mi SE 3.5 mph - N/A   Mostly Cloudy
9:35 PM 61.5 °F 51.8 °F 70% 29.86 in 10.0 mi ESE 4.6 mph - N/A   Clear
9:55 PM 61.0 °F 51.8 °F 72% 29.85 in 10.0 mi ESE 4.6 mph - N/A   Clear
10:15 PM 61.2 °F 51.4 °F 70% 29.85 in 10.0 mi SE 5.8 mph - N/A   Clear
10:35 PM 60.6 °F 51.4 °F 72% 29.85 in 10.0 mi SE 4.6 mph - N/A   Clear
10:55 PM 60.1 °F 51.6 °F 74% 29.83 in 10.0 mi SE 6.9 mph - N/A   Clear
11:15 PM 59.9 °F 52.0 °F 75% 29.81 in 10.0 mi SE 6.9 mph - N/A   Clear
11:35 PM 60.3 °F 52.7 °F 76% 29.79 in 10.0 mi SE 6.9 mph - N/A   Clear
11:55 PM 60.8 °F 52.9 °F 75% 29.78 in 10.0 mi SE 5.8 mph - N/A   Clear